Location: Makakahi
(40.6833°S, 175.6000°E)
Time: 22:20:55
(UTC+00:00)

FENGYUN 1C DEB - Pass Details

Date: 08 December 2024
Orbit: 841 x 907 km, 98.9° (Epoch: 11 January)

Event Time Altitude Azimuth Distance (km) Brightness Sun altitude
Rises 08:04:18 0° 151° (SSE) 3,498 ? -4.8°
Reaches altitude 10° 08:07:23 10° 135° (SE) 2,539 ? -5.2°
Maximum altitude 08:11:29 20° 88° (E) 1,884 ? -5.9°
Drops below altitude 10° 08:15:29 10° 41° (NE) 2,486 ? -6.5°
Enters shadow 08:16:38 - 33° (NNE) 2,815 ? -6.6°
